Location: Freiburg+im+Breisgau
(48.0359°N, 7.8195°E)
Time: 03:17:03
(UTC+02:00)

ISS - Visible Passes

Search period start: 25 May 2017 00:00
Search period end: 04 June 2017 00:00
Orbit: 402 x 409 km, 51.6° (Epoch: 25 May)

Date Brightness Start Highest point End Pass type
(mag) Time Alt. Az. Time Alt. Az. Time Alt. Az.
25 May -2.6 01:05:43 10° W 01:08:54 43° N 01:12:04 10° ENE visible
25 May -3.2 02:42:28 10° WNW 02:45:44 57° NNE 02:48:58 10° E visible
25 May -3.3 04:19:05 10° WNW 04:22:10 38° SW 04:25:13 10° SE visible
25 May -3.7 22:37:00 10° SW 22:40:13 52° SSE 22:43:27 10° ENE visible
26 May -2.9 00:13:32 10° W 00:16:46 49° N 00:19:59 10° ENE visible
26 May -2.8 01:50:24 10° WNW 01:53:37 47° N 01:56:49 10° E visible
26 May -3.9 03:26:57 10° WNW 03:30:13 61° SSW 03:33:27 10° SE visible
26 May -3.3 23:21:22 10° W 23:24:39 63° NNW 23:27:56 10° ENE visible
27 May -2.6 00:58:17 10° WNW 01:01:28 42° N 01:04:38 10° ENE visible
27 May -3.9 02:34:53 10° WNW 02:38:12 88° NNE 02:41:28 10° ESE visible
27 May -2.5 04:11:54 10° W 04:14:21 19° SW 04:16:47 10° S visible
27 May -3.8 22:29:16 10° WSW 22:32:34 87° NNW 22:35:53 10° ENE visible
28 May -2.5 00:06:07 10° WNW 00:09:17 42° N 00:12:27 10° ENE visible
28 May -3.4 01:42:50 10° WNW 01:46:07 63° NNE 01:47:25 32° E visible
28 May -1.5 03:19:31 10° W 03:19:57 13° W 03:19:57 13° W visible
28 May -2.7 23:13:55 10° W 23:17:08 47° N 23:20:20 10° ENE visible
29 May -2.9 00:50:44 10° WNW 00:53:58 50° N 00:56:00 20° E visible
29 May -2.0 02:27:18 10° WNW 02:28:36 21° W 02:28:36 21° W visible
29 May -3.1 22:21:42 10° W 22:24:58 57° NNW 22:28:14 10° ENE visible
29 May -2.6 23:58:36 10° WNW 00:01:48 43° N 00:04:58 10° E visible
30 May -3.3 01:35:10 10° WNW 01:37:43 50° WNW 01:37:43 50° WNW visible
30 May -2.5 23:06:25 10° WNW 23:09:35 42° N 23:12:45 10° ENE visible
31 May -3.6 00:43:04 10° WNW 00:46:22 71° NNE 00:47:00 52° E visible
31 May -2.6 22:14:11 10° W 22:17:22 44° N 22:20:34 10° ENE visible
31 May -3.1 23:50:57 10° WNW 23:54:12 54° NNE 23:56:24 18° E visible
01 Jun -2.0 01:27:32 10° WNW 01:29:01 23° W 01:29:01 23° W visible
01 Jun -2.7 22:58:48 10° WNW 23:02:00 45° N 23:05:11 10° E visible
02 Jun -3.9 00:35:21 10° WNW 00:38:28 67° SW 00:38:28 67° SW visible
02 Jun -2.6 22:06:35 10° WNW 22:09:45 42° N 22:12:56 10° ENE visible
02 Jun -3.8 23:43:12 10° WNW 23:46:31 80° NNE 23:47:56 31° ESE visible
03 Jun -1.3 01:20:05 10° W 01:20:35 13° W 01:20:35 13° W visible
03 Jun -3.3 22:51:03 10° WNW 22:54:20 59° NNE 22:57:28 11° E visible
